H1 CPF 2 NER 2022 3 5 9 064 01 glonass140 H2 1903001 9140 44299 2022 3 5 0 0 0 2022 3 8 23 45 0 900 1 1 0 0 0 1 H9 10 0 59643 0.00000 0 6809306.804 23184273.408 -8118918.512 10 0 59643 900.00000 0 7064277.593 23969322.511 -5045381.730 10 0 59643 1800.00000 0 7289179.657 24358863.037 -1873650.737 10 0 59643 2700.00000 0 7428759.137 24354673.962 1334538.995 10 0 59643 3600.00000 0 7430160.316 23971638.758 4516772.595 10 0 59643 4500.00000 0 7245401.273 23237032.800 7611177.655 10 0 59643 5400.00000 0 6833646.952 22189308.886 10557632.439 10 0 59643 6300.00000 0 6163182.733 20876433.441 13298936.288 10 0 59643 7200.00000 0 5213004.673 19353844.774 15781919.044 10 0 59643 8100.00000 0 3973959.102 17682120.362 17958468.026 10 0 59643 9000.00000 0 2449383.451 15924451.859 19786453.132 10 0 59643 9900.00000 0 655221.437 14144034.059 21230532.857 10 0 59643 10800.00000 0 -1380392.325 12401476.979 22262826.809 10 0 59643 11700.00000 0 -3618061.154 10752348.585 22863442.941 10 0 59643 12600.00000 0 -6008530.121 9244949.792 23020850.596 10 0 59643 13500.00000 0 -8494507.102 7918413.139 22732093.357 10 0 59643 14400.00000 0 -11012826.236 6801202.829 22002838.546 10 0 59643 15300.00000 0 -13496864.993 5910077.088 20847263.024 10 0 59643 16200.00000 0 -15879115.798 5249554.531 19287777.791 10 0 59643 17100.00000 0 -18093806.889 4811905.446 17354596.509 10 0 59643 18000.00000 0 -20079464.800 4577667.343 15085155.887 10 0 59643 18900.00000 0 -21781313.291 4516662.440 12523398.334 10 0 59643 19800.00000 0 -23153409.904 4589474.024 9718929.828 10 0 59643 20700.00000 0 -24160431.869 4749319.637 6726068.369 10 0 59643 21600.00000 0 -24779037.296 4944242.338 3602800.465 10 0 59643 22500.00000 0 -24998744.940 5119527.944 409665.029 10 0 59643 23400.00000 0 -24822295.511 5220246.411 -2791414.229 10 0 59643 24300.00000 0 -24265479.050 5193810.083 -5938325.708 10 0 59643 25200.00000 0 -23356435.027 4992440.429 -8969973.112 10 0 59643 26100.00000 0 -22134453.847 4575438.515 -11827461.477 10 0 59643 27000.00000 0 -20648329.445 3911162.327 -14455242.901 10 0 59643 27900.00000 0 -18954331.431 2978626.165 -16802199.447 10 0 59643 28800.00000 0 -17113881.395 1768653.046 -18822641.798 10 0 59643 29700.00000 0 -15191030.445 284529.688 -20477203.929 10 0 59643 30600.00000 0 -13249843.446 -1457865.587 -21733616.031 10 0 59643 31500.00000 0 -11351799.486 -3430469.451 -22567340.226 10 0 59643 32400.00000 0 -9553317.441 -5593959.710 -22962056.316 10 0 59643 33300.00000 0 -7903510.245 -7899164.114 -22909987.643 10 0 59643 34200.00000 0 -6442262.063 -10288894.443 -22412060.209 10 0 59643 35100.00000 0 -5198708.840 -12700130.474 -21477891.442 10 0 59643 36000.00000 0 -4190185.856 -15066463.472 -20125608.241 10 0 59643 36900.00000 0 -3421686.166 -17320697.497 -18381497.368 10 0 59643 37800.00000 0 -2885852.230 -19397499.945 -16279494.576 10 0 59643 38700.00000 0 -2563500.302 -21235990.311 -13860522.134 10 0 59643 39600.00000 0 -2424654.625 -22782158.426 -11171687.682 10 0 59643 40500.00000 0 -2430046.554 -23991010.468 -8265360.239 10 0 59643 41400.00000 0 -2533013.908 -24828352.441 -5198141.836 10 0 59643 42300.00000 0 -2681718.702 -25272136.080 -2029755.685 10 0 59643 43200.00000 0 -2821587.825 -25313310.849 1178126.534 10 0 59643 44100.00000 0 -2897871.716 -24956146.675 4363094.341 10 0 59643 45000.00000 0 -2858211.294 -24218014.688 7463220.370 10 0 59643 45900.00000 0 -2655103.222 -23128636.272 10418269.818 10 0 59643 46800.00000 0 -2248158.252 -21728833.282 13170873.227 10 0 59643 47700.00000 0 -1606056.589 -20068833.173 15667639.343 10 0 59643 48600.00000 0 -708117.365 -18206201.407 17860186.543 10 0 59643 49500.00000 0 454584.061 -16203488.618 19706073.247 10 0 59643 50400.00000 0 1878597.930 -14125691.584 21169610.067 10 0 59643 51300.00000 0 3548006.986 -12037634.174 22222539.065 10 0 59643 52200.00000 0 5434862.424 -10001377.084 22844568.290 10 0 59643 53100.00000 0 7500130.873 -8073763.501 23023752.511 10 0 59643 54000.00000 0 9695113.368 -6304201.569 22756713.994 10 0 59643 54900.00000 0 11963277.980 -4732774.371 22048700.053 10 0 59643 55800.00000 0 14242430.735 -3388754.384 20913476.855 10 0 59643 56700.00000 0 16467135.746 -2289582.496 19373061.845 10 0 59643 57600.00000 0 18571285.230 -1440352.484 17457299.787 10 0 59643 58500.00000 0 20490713.755 -833821.124 15203290.196 10 0 59643 59400.00000 0 22165749.162 -450942.370 12654676.470 10 0 59643 60300.00000 0 23543594.928 -261902.508 9860809.521 10 0 59643 61200.00000 0 24580445.318 -227612.448 6875801.177 10 0 59643 62100.00000 0 25243245.442 -301594.258 3757484.713 10 0 59643 63000.00000 0 25511022.749 -432182.542 566301.776 10 0 59643 63900.00000 0 25375733.937 -564947.939 -2635863.218 10 0 59643 64800.00000 0 24842591.315 -645240.450 -5786879.123 10 0 59643 65700.00000 0 23929854.161 -620745.049 -8825571.512 10 0 59643 66600.00000 0 22668092.986 -443941.179 -11692910.111 10 0 59643 67500.00000 0 21098956.604 -74361.543 -14333157.045 10 0 59643 68400.00000 0 19273492.820 519446.303 -16694953.359 10 0 59643 69300.00000 0 17250092.324 1358339.629 -18732322.297 10 0 59643 70200.00000 0 15092141.266 2451449.804 -20405569.524 10 0 59643 71100.00000 0 12865480.233 3795550.636 -21682062.414 10 0 59643 72000.00000 0 10635775.653 5374954.302 -22536872.809 10 0 59643 72900.00000 0 8465913.325 7161941.227 -22953270.355 10 0 59643 73800.00000 0 6413522.865 9117707.840 -22923056.356 10 0 59643 74700.00000 0 4528736.601 11193794.076 -22446731.127 10 0 59643 75600.00000 0 2852276.462 13333932.296 -21533491.089 10 0 59643 76500.00000 0 1413948.751 15476241.246 -20201055.080 10 0 59643 77400.00000 0 231609.581 17555673.805 -18475322.778 10 0 59643 78300.00000 0 -689356.181 19506616.288 -16389871.465 10 0 59643 79200.00000 0 -1356021.337 21265530.339 -13985300.655 10 0 59643 80100.00000 0 -1787369.663 22773526.252 -11308437.321 10 0 59643 81000.00000 0 -2013240.405 23978759.255 -8411417.461 10 0 59643 81900.00000 0 -2072809.973 24838547.643 -5350662.319 10 0 59643 82800.00000 0 -2012676.585 25321123.254 -2185770.083 10 0 59643 83700.00000 0 -1884630.609 25406940.535 1021654.425 10 0 59643 84600.00000 0 -1743206.693 25089489.171 4209208.207 10 0 59643 85500.00000 0 -1643122.924 24375576.541 7314911.967 10 0 59644 0.00000 0 -1636716.830 23285068.912 10278420.479 10 0 59644 900.00000 0 -1771487.877 21850102.551 13042198.733 10 0 59644 1800.00000 0 -2087851.120 20113800.508 15552636.597 10 0 59644 2700.00000 0 -2617197.332 18128547.945 17761085.742 10 0 59644 3600.00000 0 -3380341.621 15953900.495 19624795.092 10 0 59644 4500.00000 0 -4386425.753 13654213.202 21107729.050 10 0 59644 5400.00000 0 -5632320.194 11296089.254 22181253.522 10 0 59644 6300.00000 0 -7102550.817 8945754.543 22824677.708 10 0 59644 7200.00000 0 -8769753.330 6666466.662 23025642.474 10 0 59644 8100.00000 0 -10595636.626 4516064.873 22780349.026 10 0 59644 9000.00000 0 -12532415.383 2544761.333 22093624.454 10 0 59644 9900.00000 0 -14524652.829 793263.701 20978823.501 10 0 59644 10800.00000 0 -16511437.930 -708694.735 19457568.797 10 0 59644 11700.00000 0 -18428807.459 -1943358.029 17559334.411 10 0 59644 12600.00000 0 -20212313.182 -2905443.446 15320880.361 10 0 59644 13500.00000 0 -21799628.372 -3602110.940 12785548.281 10 0 59644 14400.00000 0 -23133085.921 -4052408.545 10002430.901 10 0 59644 15300.00000 0 -24162042.811 -4286217.609 7025430.494 10 0 59644 16200.00000 0 -24844972.552 -4342742.537 3912223.548 10 0 59644 17100.00000 0 -25151198.129 -4268608.760 723150.848 10 0 59644 18000.00000 0 -25062192.562 -4115649.013 -2479946.076 10 0 59644 18900.00000 0 -24572391.979 -3938471.323 -5634920.028 10 0 59644 19800.00000 0 -23689486.191 -3791911.438 -8680521.805 10 0 59644 20700.00000 0 -22434173.540 -3728477.520 -11557588.969 10 0 59644 21600.00000 0 -20839389.098 -3795895.578 -14210196.561 10 0 59644 22500.00000 0 -18949037.389 -4034860.049 -16586747.160 10 0 59644 23400.00000 0 -16816281.620 -4477085.568 -18640978.705 10 0 59644 24300.00000 0 -14501460.066 -5143743.444 -20332870.173 10 0 59644 25200.00000 0 -12069715.892 -6044350.306 -21629427.152 10 0 59644 26100.00000 0 -9588438.910 -7176157.433 -22505331.595 10 0 59644 27000.00000 0 -7124625.642 -8524068.247 -22943442.723 10 0 59644 27900.00000 0 -4742267.547 -10061089.227 -22935138.890 10 0 59644 28800.00000 0 -2499876.311 -11749296.947 -22480493.236 10 0 59644 29700.00000 0 -448249.309 -13541282.060 -21588279.184 10 0 59644 30600.00000 0 1371431.632 -15382010.820 -20275805.101 10 0 59644 31500.00000 0 2929088.905 -17211026.744 -18568580.855 10 0 59644 32400.00000 0 4206763.395 -18964900.435 -16499822.310 10 0 59644 33300.00000 0 5199112.530 -20579824.742 -14109803.122 10 0 59644 34200.00000 0 5913372.067 -21994245.901 -11445066.444 10 0 59644 35100.00000 0 6368784.467 -23151419.550 -8557512.105 10 0 59644 36000.00000 0 6595519.377 -24001783.468 -5503377.497 10 0 59644 36900.00000 0 6633133.446 -24505046.508 -2342132.849 10 0 59644 37800.00000 0 6528636.314 -24631905.296 864686.628 10 0 59644 38700.00000 0 6334246.451 -24365316.128 4054687.946 10 0 59644 39600.00000 0 6104933.509 -23701268.497 7165842.178 10 0 59644 40500.00000 0 5895852.812 -22649028.069 10137696.227 10 0 59644 41400.00000 0 5759781.820 -21230839.384 12912550.222 10 0 59644 42300.00000 0 5744667.899 -19481101.641 15436577.181 10 0 59644 43200.00000 0 5891391.567 -17445052.874 17660863.247 10 0 59644 44100.00000 0 6231839.786 -15177018.386 19542348.702 10 0 59644 45000.00000 0 6787370.387 -12738297.232 21044652.293 10 0 59644 45900.00000 0 7567731.910 -10194775.119 22138763.977 10 0 59644 46800.00000 0 8570483.913 -7614362.957 22803593.999 10 0 59644 47700.00000 0 9780941.695 -5064367.012 23026368.922 10 0 59644 48600.00000 0 11172647.681 -2608898.863 22802868.223 10 0 59644 49500.00000 0 12708349.867 -306431.233 22137497.858 10 0 59644 50400.00000 0 14341446.850 1792400.476 21043200.041 10 0 59644 51300.00000 0 16017839.839 3646661.530 19541201.302 10 0 59644 52200.00000 0 17678115.275 5226570.556 17660603.574 10 0 59644 53100.00000 0 19259967.986 6514482.819 15437825.790 10 0 59644 54000.00000 0 20700764.791 7505364.691 12915906.077 10 0 59644 54900.00000 0 21940142.462 8206740.737 10143677.071 10 0 59644 55800.00000 0 22922532.100 8638116.529 7174829.407 10 0 59644 56700.00000 0 23599504.830 8829901.984 4066880.534 10 0 59644 57600.00000 0 23931840.629 8821880.787 880067.964 10 0 59644 58500.00000 0 23891233.295 8661290.397 -2323812.176 10 0 59644 59400.00000 0 23461559.424 8400593.559 -5482599.196 10 0 59644 60300.00000 0 22639657.178 8095035.365 -8534971.633 10 0 59644 61200.00000 0 21435580.947 7800089.065 -11421637.285 10 0 59644 62100.00000 0 19872319.865 7568898.785 -14086486.331 10 0 59644 63000.00000 0 17984990.477 7449827.636 -16477684.874 10 0 59644 63900.00000 0 15819536.024 7484215.479 -18548687.284 10 0 59644 64800.00000 0 13430985.388 7704441.954 -20259147.343 10 0 59644 65700.00000 0 10881343.361 8132377.672 -21575710.119 10 0 59644 66600.00000 0 8237199.416 8778290.226 -22472668.706 10 0 59644 67500.00000 0 5567154.036 9640252.564 -22932472.705 10 0 59644 68400.00000 0 2939169.370 10704080.185 -22946078.064 10 0 59644 69300.00000 0 417954.400 11943801.217 -22513130.982 10 0 59644 70200.00000 0 -1937506.641 13322640.958 -21641981.760 10 0 59644 71100.00000 0 -4076179.760 14794480.590 -20349527.788 10 0 59644 72000.00000 0 -5956867.805 16305729.508 -18660888.197 10 0 59644 72900.00000 0 -7549679.779 17797532.984 -16608916.101 10 0 59644 73800.00000 0 -8837021.889 19208222.418 -14233557.585 10 0 59644 74700.00000 0 -9814069.495 20475904.729 -11581069.936 10 0 59644 75600.00000 0 -10488701.264 21541081.378 -8703114.502 10 0 59644 76500.00000 0 -10880899.594 22349185.931 -5655742.286 10 0 59644 77400.00000 0 -11021644.166 22852932.399 -2498292.884 10 0 59644 78300.00000 0 -10951347.082 23014374.619 707770.877 10 0 59644 79200.00000 0 -10717897.595 22806589.269 3900068.832 10 0 59644 80100.00000 0 -10374400.923 22214911.218 7016525.224 10 0 59644 81000.00000 0 -9976708.522 21237669.149 9996581.571 10 0 59644 81900.00000 0 -9580845.712 19886390.682 12782376.339 10 0 59644 82800.00000 0 -9240446.515 18185468.853 15319867.959 10 0 59644 83700.00000 0 -9004304.752 16171304.499 17559879.423 10 0 59644 84600.00000 0 -8914145.013 13890961.005 19459044.579 10 0 59644 85500.00000 0 -9002707.327 11400388.158 20980638.492 10 0 59645 0.00000 0 -9292225.714 8762289.605 22095276.828 10 0 59645 900.00000 0 -9793364.171 6043721.135 22781472.520 10 0 59645 1800.00000 0 -10504653.709 3313522.730 23026038.809 10 0 59645 2700.00000 0 -11412454.047 639685.337 22824334.147 10 0 59645 3600.00000 0 -12491440.945 -1913236.209 22180343.618 10 0 59645 4500.00000 0 -13705598.880 -4286559.715 21106596.680 10 0 59645 5400.00000 0 -15009677.868 -6429662.160 19623923.014 10 0 59645 6300.00000 0 -16351054.114 -8301827.307 17761051.136 10 0 59645 7200.00000 0 -17671917.498 -9873679.356 15554057.098 10 0 59645 8100.00000 0 -18911695.328 -11128144.604 13045673.238 10 0 59645 9000.00000 0 -20009611.858 -12060902.401 10284469.397 10 0 59645 9900.00000 0 -20907277.114 -12680307.549 7323921.529 10 0 59645 10800.00000 0 -21551197.079 -13006788.141 4221384.747 10 0 59645 11700.00000 0 -21895100.139 -13071744.556 1036989.814 10 0 59645 12600.00000 0 -21901981.938 -12915996.011 -2167516.107 10 0 59645 13500.00000 0 -21545782.221 -12587840.133 -5329962.435 10 0 59645 14400.00000 0 -20812622.244 -12140807.267 -8388959.013 10 0 59645 15300.00000 0 -19701549.547 -11631204.244 -11285087.347 10 0 59645 16200.00000 0 -18224757.305 -11115551.340 -13962056.051 10 0 59645 17100.00000 0 -16407267.381 -10648020.887 -16367797.794 10 0 59645 18000.00000 0 -14286088.713 -10277986.058 -18455486.072 10 0 59645 18900.00000 0 -11908884.631 -10047783.927 -20184451.696 10 0 59645 19800.00000 0 -9332203.254 -9990787.983 -21520980.874 10 0 59645 20700.00000 0 -6619343.707 -10129872.364 -22438978.868 10 0 59645 21600.00000 0 -3837946.025 -10476333.628 -22920485.997 10 0 59645 22500.00000 0 -1057404.407 -11029316.695 -22956035.471 10 0 59645 23400.00000 0 1653788.899 -11775770.264 -22544845.573 10 0 59645 24300.00000 0 4230658.853 -12690934.701 -21694841.953 10 0 59645 25200.00000 0 6614213.301 -13739342.790 -20422509.009 10 0 59645 26100.00000 0 8753656.379 -14876291.892 -18752572.721 10 0 59645 27000.00000 0 10608257.493 -16049725.916 -16717520.706 10 0 59645 27900.00000 0 12148798.137 -17202447.909 -14356968.481 10 0 59645 28800.00000 0 13358536.457 -18274569.698 -11716884.253 10 0 59645 29700.00000 0 14233649.954 -19206094.741 -8848687.515 10 0 59645 30600.00000 0 14783138.855 -19939524.428 -5808239.430 10 0 59645 31500.00000 0 15028195.586 -20422376.887 -2654745.489 10 0 59645 32400.00000 0 15001068.574 -20609511.053 550407.267 10 0 59645 33300.00000 0 14743470.173 -20465157.053 3744854.735 10 0 59645 34200.00000 0 14304597.787 -19964566.599 6866477.324 10 0 59645 35100.00000 0 13738853.622 -19095213.398 9854613.843 10 0 59645 36000.00000 0 13103361.034 -17857492.910 12651243.388 10 0 59645 36900.00000 0 12455383.639 -16264892.141 15202111.668 10 0 59645 37800.00000 0 11849757.037 -14343622.638 17457779.954 10 0 59645 38700.00000 0 11336441.841 -12131732.407 19374576.630 10 0 59645 39600.00000 0 10958301.095 -9677734.238 20915433.620 10 0 59645 40500.00000 0 10749195.127 -7038807.823 22050592.577 10 0 59645 41400.00000 0 10732473.223 -4278650.363 22758168.445 10 0 59645 42300.00000 0 10919924.526 -1465064.673 23024560.754 10 0 59645 43200.00000 0 11311231.298 1332615.967 22844705.990 10 0 59645 44100.00000 0 11893946.724 4046160.600 22222167.155 10 0 59645 45000.00000 0 12643997.690 6611023.278 21169059.505 10 0 59645 45900.00000 0 13526691.317 8968770.287 19705814.247 10 0 59645 46800.00000 0 14498183.306 11069253.039 17860784.698 10 0 59645 47700.00000 0 15507347.042 12872438.085 15669702.104 10 0 59645 48600.00000 0 16497965.843 14349819.821 13174990.977 10 0 59645 49500.00000 0 17411157.249 15485358.433 10424956.206 10 0 59645 50400.00000 0 18187928.347 16275905.011 7472856.794 10 0 59645 51300.00000 0 18771755.471 16731096.841 4375883.149 10 0 59645 52200.00000 0 19111080.186 16872727.776 1194056.838 10 0 59645 53100.00000 0 19161616.591 16733620.279 -2010926.414 10 0 59645 54000.00000 0 18888372.470 16356046.635 -5176888.578 10 0 59645 54900.00000 0 18267298.439 15789765.668 -8242373.148 10 0 59645 55800.00000 0 17286494.534 15089757.579 -11147837.529 10 0 59645 56700.00000 0 15946921.995 14313752.333 -13836810.751 10 0 59645 57600.00000 0 14262588.586 13519655.864 -16256993.801 10 0 59645 58500.00000 0 12260197.822 12762982.811 -18361280.803 10 0 59645 59400.00000 0 9978274.906 12094404.423 -20108680.884 10 0 59645 60300.00000 0 7465804.096 11557515.467 -21465122.472 10 0 59645 61200.00000 0 4780432.867 11186914.933 -22404123.887 10 0 59645 62100.00000 0 1986316.397 11006682.127 -22907316.865 10 0 59645 63000.00000 0 -848308.921 11029313.175 -22964812.347 10 0 59645 63900.00000 0 -3653722.567 11255163.561 -22575400.903 10 0 59645 64800.00000 0 -6361380.044 11672420.949 -21746583.399 10 0 59645 65700.00000 0 -8906525.618 12257610.128 -20494430.720 10 0 59645 66600.00000 0 -11230648.891 12976609.278 -18843274.786 10 0 59645 67500.00000 0 -13283682.909 13786134.992 -16825236.410 10 0 59645 68400.00000 0 -15025852.179 14635633.399 -14479598.874 10 0 59645 69300.00000 0 -16429093.541 15469497.254 -11852039.356 10 0 59645 70200.00000 0 -17477990.945 16229514.783 -8993733.333 10 0 59645 71100.00000 0 -18170185.691 16857445.976 -5960349.818 10 0 59645 72000.00000 0 -18516245.978 17297616.435 -2810957.791 10 0 59645 72900.00000 0 -18539002.671 17499418.075 393133.941 10 0 59645 73800.00000 0 -18272380.939 17419609.945 3589579.827 10 0 59645 74700.00000 0 -17759778.816 17024321.078 6716218.934 10 0 59645 75600.00000 0 -17052062.936 16290670.172 9712289.865 10 0 59645 76500.00000 0 -16205267.752 15207933.351 12519614.826 10 0 59645 77400.00000 0 -15278096.709 13778210.725 15083729.251 10 0 59645 78300.00000 0 -14329331.857 12016563.748 17354935.047 10 0 59645 79200.00000 0 -13415261.599 9950617.749 19289257.373 10 0 59645 80100.00000 0 -12587234.954 7619646.493 20849287.069 10 0 59645 81000.00000 0 -11889444.795 5073177.052 22004893.525 10 0 59645 81900.00000 0 -11357032.357 2369172.934 22733795.449 10 0 59645 82800.00000 0 -11014591.524 -428129.265 23021979.776 10 0 59645 83700.00000 0 -10875134.412 -3250640.638 22863961.892 10 0 59645 84600.00000 0 -10939560.436 -6028998.836 22262883.190 10 0 59645 85500.00000 0 -11196650.132 -8695199.383 21230444.765 10 0 59646 0.00000 0 -11623583.290 -11185171.763 19786679.093 10 0 59646 900.00000 0 -12186959.570 -13441196.445 17959563.154 10 0 59646 1800.00000 0 -12844278.286 -15414060.853 15784482.187 10 0 59646 2700.00000 0 -13545816.326 -17064870.752 13303551.120 10 0 59646 3600.00000 0 -14236825.435 -18366439.646 10564807.759 10 0 59646 4500.00000 0 -14859957.346 -19304200.660 7621291.685 10 0 59646 5400.00000 0 -15357815.341 -19876603.418 4530025.856 10 0 59646 6300.00000 0 -15675525.287 -20094979.771 1350919.690 10 0 59646 7200.00000 0 -15763217.999 -19982884.164 -1854385.659 10 0 59646 8100.00000 0 -15578318.135 -19574936.352 -5023707.972 10 0 59646 9000.00000 0 -15087542.516 -18915214.949 -8095527.747 10 0 59646 9900.00000 0 -14268522.707 -18055269.167 -11010181.670 10 0 59646 10800.00000 0 -13110982.093 -17051832.266 -13711022.544 10 0 59646 11700.00000 0 -11617416.215 -15964332.862 -16145522.912 10 0 59646 12600.00000 0 -9803245.896 -14852308.898 -18266300.554 10 0 59646 13500.00000 0 -7696434.654 -13772833.296 -20032045.610 10 0 59646 14400.00000 0 -5336584.396 -12778059.903 -21408330.979 10 0 59646 15300.00000 0 -2773545.334 -11912993.428 -22368289.765 10 0 59646 16200.00000 0 -65596.462 -11213577.632 -22893146.249 10 0 59646 17100.00000 0 2722728.975 -10705182.750 -22972589.622 10 0 59646 18000.00000 0 5523083.425 -10401556.304 -22604982.668 10 0 59646 18900.00000 0 8265909.537 -10304281.946 -21797400.830 10 0 59646 19800.00000 0 10883101.291 -10402769.500 -20565500.349 10 0 59646 20700.00000 0 13310610.968 -10674776.867 -18933217.478 10 0 59646 21600.00000 0 15490893.395 -11087441.853 -16932304.196 10 0 59646 22500.00000 0 17375085.440 -11598780.172 -14601709.111 10 0 59646 23400.00000 0 18924829.616 -12159585.965 -11986815.543 10 0 59646 24300.00000 0 20113665.739 -12715653.790 -9138551.758 10 0 59646 25200.00000 0 20927932.712 -13210227.216 -6112391.117 10 0 59646 26100.00000 0 21367143.275 -13586569.329 -2967262.374 10 0 59646 27000.00000 0 21443817.098 -13790545.201 235607.740 10 0 59646 27900.00000 0 21182780.587 -13773105.846 3433896.037 10 0 59646 28800.00000 0 20619964.483 -13492567.560 6565403.905 10 0 59646 29700.00000 0 19800751.685 -12916589.398 9569273.118 10 0 59646 30600.00000 0 18777946.613 -12023764.659 12387171.980 10 0 59646 31500.00000 0 17609453.214 -10804758.884 14964428.171 10 0 59646 32400.00000 0 16355760.608 -9262946.315 17251086.258 10 0 59646 33300.00000 0 15077342.956 -7414518.023 19202869.676 10 0 59646 34200.00000 0 13832083.147 -5288057.263 20782029.181 10 0 59646 35100.00000 0 12672828.231 -2923599.773 21958062.419 10 0 59646 36000.00000 0 11645178.435 -371218.066 22708291.933 10 0 59646 36900.00000 0 10785601.332 2310811.683 23018291.699 10 0 59646 37800.00000 0 10119948.762 5058184.623 22882155.262 10 0 59646 38700.00000 0 9662437.165 7802994.798 22302601.289 10 0 59646 39600.00000 0 9415132.605 10476315.756 21290915.293 10 0 59646 40500.00000 0 9367960.894 13010828.659 19866729.000 10 0 59646 41400.00000 0 9499241.506 15343390.506 18057641.628 10 0 59646 42300.00000 0 9776722.434 17417437.355 15898690.013 10 0 59646 43200.00000 0 10159072.445 19185124.267 13431677.167 10 0 59646 44100.00000 0 10597768.230 20609114.222 10704371.318 10 0 59646 45000.00000 0 11039297.515 21663942.469 7769590.025 10 0 59646 45900.00000 0 11427585.874 22336900.110 4684186.092 10 0 59646 46800.00000 0 11706545.420 22628400.397 1507954.036 10 0 59646 47700.00000 0 11822638.183 22551812.516 -1697522.302 10 0 59646 48600.00000 0 11727345.973 22132769.734 -4870059.179 10 0 59646 49500.00000 0 11379442.131 21407980.693 -7948076.605 10 0 59646 50400.00000 0 10746968.516 20423593.440 -10871792.858 10 0 59646 51300.00000 0 9808833.174 19233180.599 -13584386.559 10 0 59646 52200.00000 0 8555959.793 17895430.100 -16033103.583 10 0 59646 53100.00000 0 6991938.728 16471638.351 -18170286.859 10 0 59646 54000.00000 0 5133150.191 15023111.159 -19954308.782 10 0 59646 54900.00000 0 3008352.257 13608581.657 -21350387.733 10 0 59646 55800.00000 0 657748.912 12281753.910 -22331272.390 10 0 59646 56700.00000 0 -1868424.881 11089075.606 -22877780.166 10 0 59646 57600.00000 0 -4511743.711 10067833.648 -22979178.839 10 0 59646 58500.00000 0 -7207782.385 9244652.982 -22633403.439 10 0 59646 59400.00000 0 -9888566.452 8634461.931 -21847103.697 10 0 59646 60300.00000 0 -12485181.142 8239967.687 -20635520.519 10 0 59646 61200.00000 0 -14930430.229 8051664.058 -19022193.407 10 0 59646 62100.00000 0 -17161434.030 8048370.954 -17038504.039 10 0 59646 63000.00000 0 -19122058.020 8198282.463 -14723064.550 10 0 59646 63900.00000 0 -20765070.335 8460478.702 -12120962.344 10 0 59646 64800.00000 0 -22053937.820 8786836.684 -9282876.252 10 0 59646 65700.00000 0 -22964185.446 9124258.353 -6264081.654 10 0 59646 66600.00000 0 -23484262.338 9417120.251 -3123364.689 10 0 59646 67500.00000 0 -23615878.728 9609839.811 78132.392 10 0 59646 68400.00000 0 -23373800.635 9649448.237 3278111.174 10 0 59646 69300.00000 0 -22785112.215 9488059.854 6414337.795 10 0 59646 70200.00000 0 -21887978.333 9085132.353 9425859.627 10 0 59646 71100.00000 0 -20729961.039 8409421.547 12254193.489 10 0 59646 72000.00000 0 -19365962.340 7440547.563 14844461.685 10 0 59646 72900.00000 0 -17855881.087 6170106.142 17146453.723 10 0 59646 73800.00000 0 -16262083.367 4602278.098 19115593.453 10 0 59646 74700.00000 0 -14646793.074 2753911.393 20713793.463 10 0 59646 75600.00000 0 -13069512.034 654072.313 21910181.305 10 0 59646 76500.00000 0 -11584577.109 -1656915.677 22681684.686 10 0 59646 77400.00000 0 -10238955.518 -4128905.557 23013465.622 10 0 59646 78300.00000 0 -9070369.140 -6703773.814 22899196.443 10 0 59646 79200.00000 0 -8105824.570 -9317605.033 22341173.375 10 0 59646 80100.00000 0 -7360608.731 -11903124.331 21350266.252 10 0 59646 81000.00000 0 -6837790.460 -14392278.045 19945705.755 10 0 59646 81900.00000 0 -6528247.578 -16718857.037 18154712.269 10 0 59646 82800.00000 0 -6411217.373 -18821055.096 16011973.190 10 0 59646 83700.00000 0 -6455346.754 -20643857.555 13558978.132 10 0 59646 84600.00000 0 -6620197.772 -22141162.002 10843223.971 10 0 59646 85500.00000 0 -6858145.280 -23277543.604 7917304.196 99